SCP
0 0 0 0 0 0 0 0 0 0 0 0 0 0 0 0 0 0 0 0 0 0 0 0 0 0 0 0 0 0 0 0 0 0 0 0 0 0 0 0 0 0 0
0 0 0 0 0 0 0 0 0 0 0 0 0 0 0 0 0 0 0 0 0 0 0 0 0 0 0 0 0 0 0 0 0 0 0 0 0 0 0 0 0 0 0
0 0 0 0 0 0 0 0 0 0 0 0 0 0 0 0 0 0 0 0 0 0 0 0 0 0 0 0 0 0 0 0 0 0 0 0 0 0 0 0 0 0 0
0 0 0 0 0 0 0 0 0 0 0 0 0 0 0 0 0 0 0 0 0 0 0 0 0 0 0 0 0 0 0 0 0 0 0 0 0 0 0 0 0 0 0
0 0 0 0 0 0 0 0 0 0 0 0 0 0 0 0 0 0 0 0 0 0 0 0 0 0 0 0 0 0 0 0 0 0 0 0 0 0 0 0 0 0 0
0 0 0 0 0 0 0 0 0 0 0 0 0 0 0 0 0 0 0 0 0 0 0 0 0 0 0 0 0 0 0 0 0 0 0 0 0 0 0 0 0 0 0
0 0 0 0 0 0 0 0 0 0 0 0 0 0 0 0 0 0 0 0 0 0 0 0 0 0 0 0 0 0 0 0 0 0 0 0 0 0 0 0 0 0 0
0 0 0 0 0 0 0 0 0 0 0 0 0 0 0 0 0 0 0 0 0 0 0 0 0 0 0 0 0 0 0 0 0 0 0 0 0 0 0 0 0 0 0
0 0 0 0 0 0 0 0 0 0 0 0 0 0 0 0 0 0 0 0 0 0 0 0 0 0 0 0 0 0 0 0 0 0 0 0 0 0 0 0 0 0 0
0 0 0 0 0 0 0 0 0 0 0 0 0 0 0 0 0 0 0 0 0 0 0 0 0 0 0 0 0 0 0 0 0 0 0 0 0 0 0 0 0 0 0
0 0 0 0 0 0 0 0 0 0 0 0 0 0 0 0 0 0 0 0 0 0 0 0 0 0 0 0 0 0 0 0 0 0 0 0 0 0 0 0 0 0 0
0 0 0 0 0 0 0 0 0 0 0 0 0 0 0 0 0 0 0 0 0 0 0 0 0 0 0 0 0 0 0 0 0 0 0 0 0 0 0 0 0 0 0
0 0 0 0 0 0 0 0 0 0 0 0 0 0 0 0 0 0 0 0 0 0 0 0 0 0 0 0 0 0 0 0 0 0 0 0 0 0 0 0 0 0 0
0 0 0 0 0 0 0 0 0 0 0 0 0 0 0 0 0 0 0 0 0 0 0 0 0 0 0 0 0 0 0 0 0 0 0 0 0 0 0 0 0 0 0
0 0 0 0 0 0 0 0 0 0 0 0 0 0 0 0 0 0 0 0 0 0 0 0 0 0 0 0 0 0 0 0 0 0 0 0 0 0 0 0 0 0 0
0 0 0 0 0 0 0 0 0 0 0 0 0 0 0 0 0 0 0 0 0 0 0 0 0 0 0 0 0 0 0 0 0 0 0 0 0 0 0 0 0 0 0
0 0 0 0 0 0 0 0 0 0 0 0 0 0 0 0 0 0 0 0 0 0 0 0 0 0 0 0 0 0 0 0 0 0 0 0 0 0 0 0 0 0 0
0 0 0 0 0 0 0 0 0 0 0 0 0 0 0 0 0 0 0 0 0 0 0 0 0 0 0 0 0 0 0 0 0 0 0 0 0 0 0 0 0 0 0
0 0 0 0 0 0 0 0 0 0 0 0 0 0 0 0 0 0 0 0 0 0 0 0 0 0 0 0 0 0 0 0 0 0 0 0 0 0 0 0 0 0 0
0 0 0 0 0 0 0 0 0 0 0 0 0 0 0 0 0 0 0 0 0 0 0 0 0 0 0 0 0 0 0 0 0 0 0 0 0 0 0 0 0 0 0
0 0 0 0 0 0 0 0 0 0 0 0 0 0 0 0 0 0 0 0 0 0 0 0 0 0 0 0 0 0 0 0 0 0 0 0 0 0 0 0 0 0 0
0 0 0 0 0 0 0 0 0 0 0 0 0 0 0 0 0 0 0 0 0 0 0 0 0 0 0 0 0 0 0 0 0 0 0 0 0 0 0 0 0 0 0
0 0 0 0 0 0 0 0 0 0 0 0 0 0 0 0 0 0 0 0 0 0 0 0 0 0 0 0 0 0 0 0 0 0 0 0 0 0 0 0 0 0 0
0 0 0 0 0 0 0 0 0 0 0 0 0 0 0 0 0 0 0 0 0 0 0 0 0 0 0 0 0 0 0 0 0 0 0 0 0 0 0 0 0 0 0
0 0 0 0 0 0 0 0 0 0 0 0 0 0 0 0 0 0 0 0 0 0 0 0 0 0 0 0 0 0 0 0 0 0 0 0 0 0 0 0 0 0 0
0 0 0 0 0 0 0 0 0 0 0 0 0 0 0 0 0 0 0 0 0 0 0 0 0 0 0 0 0 0 0 0 0 0 0 0 0 0 0 0 0 0 0
Wind_Speed
1 2 5 5 4 5 6 7 8 8 8 8 8 8 8 8 8 8 9 9 9 10 10 11 11 12 12 12 13 13 13 13 12 13 12 12 13 13 12 10 8 10 13
1 1 4 5 6 7 7 8 8 8 8 7 8 8 8 8 9 9 9 9 9 10 10 11 11 11 12 12 12 13 12 12 12 11 8 9 11 12 12 11 11 10 12
3 3 3 5 7 8 9 9 9 9 9 8 7 8 8 8 8 9 9 9 9 9 10 10 11 11 11 11 11 12 12 11 10 7 4 7 10 11 11 11 11 11 12
3 3 3 5 7 8 9 9 9 9 9 9 8 8 8 8 8 9 9 9 9 9 9 10 10 10 11 10 10 11 11 10 8 4 5 7 8 10 11 11 11 11 11
4 3 4 5 7 8 8 9 9 9 9 9 9 9 9 9 8 8 9 8 8 9 9 9 9 10 10 10 10 10 10 8 5 4 6 7 7 9 10 10 10 11 11
4 4 5 5 7 7 8 8 8 9 9 9 9 9 9 9 9 8 8 8 8 8 8 9 9 9 8 8 9 9 9 6 2 5 6 6 6 8 9 10 10 10 10
4 4 4 5 6 6 7 7 8 8 8 8 8 9 9 9 9 8 8 8 8 8 8 8 8 8 8 8 8 8 8 5 3 5 5 5 7 8 8 8 9 9 9
4 3 4 5 6 6 6 6 7 7 7 8 8 8 8 8 8 8 7 7 7 7 7 7 7 8 8 8 8 7 6 4 3 4 5 5 6 6 7 7 7 8 9
3 3 3 3 3 5 5 5 6 7 7 7 8 8 8 8 8 8 7 7 7 7 7 7 7 7 7 7 8 7 6 4 3 3 4 4 5 5 6 6 6 7 8
3 2 2 2 2 2 3 5 6 6 7 7 8 8 7 6 6 7 7 7 7 6 6 7 7 7 7 7 7 6 4 1 3 3 2 4 4 4 5 5 6 6 6
2 2 1 1 2 1 1 3 3 4 6 5 5 6 4 3 3 3 6 7 6 6 5 6 6 6 5 5 6 4 1 1 3 2 3 5 4 4 5 5 5 5 6
2 1 1 1 1 1 1 1 1 1 2 2 2 3 2 2 2 3 4 6 5 5 4 5 5 4 2 2 3 1 0 1 2 2 3 5 3 4 4 4 3 4 5
3 2 1 1 1 1 0 1 0 0 1 1 1 2 1 1 1 1 1 2 2 2 2 2 2 2 1 1 1 1 1 1 1 1 3 5 3 3 3 3 3 3 3
3 3 2 1 1 1 1 1 1 0 0 0 0 1 1 1 1 1 1 1 1 1 1 1 1 1 1 1 1 1 1 0 1 1 2 4 3 2 2 2 3 3 3
3 3 2 2 2 2 2 1 1 1 1 0 0 0 1 0 1 1 1 1 1 1 1 0 0 1 0 0 0 0 0 0 0 0 1 3 4 3 1 1 2 2 2
4 3 3 3 3 2 2 2 2 1 1 1 1 1 1 1 1 1 1 1 1 1 1 1 1 0 0 1 1 1 1 1 1 1 0 1 2 3 3 2 1 1 1
4 3 3 3 2 3 3 2 2 2 2 2 1 2 2 1 1 1 1 1 1 1 1 1 1 1 0 1 1 2 2 2 2 1 1 1 1 1 2 2 2 2 2
4 4 3 2 3 3 2 2 2 2 2 2 2 2 2 2 2 2 2 1 1 1 1 1 1 1 1 1 2 2 2 2 2 2 2 1 1 1 0 2 3 2 2
4 4 3 3 3 3 2 2 2 1 1 1 1 1 2 2 2 2 2 2 1 1 1 1 1 1 1 2 2 2 2 3 2 3 3 2 2 2 2 1 1 2 2
3 3 3 3 3 2 2 1 1 1 1 1 1 1 2 2 3 3 2 3 2 2 2 2 2 2 2 2 2 3 3 3 3 3 3 3 3 3 3 2 2 1 1
3 3 3 3 3 2 2 2 2 2 2 2 2 2 2 2 3 3 3 3 3 2 2 3 2 2 2 2 2 2 3 3 4 3 3 3 3 3 3 3 2 1 1
3 3 3 3 3 3 2 2 2 2 2 2 2 2 3 3 3 3 3 3 3 3 3 3 3 3 2 2 2 2 2 3 3 3 3 3 4 3 4 3 3 2 2
3 3 3 4 3 3 3 2 1 1 1 2 2 2 3 4 4 4 4 4 4 4 4 4 4 4 3 3 3 3 2 2 1 3 3 3 3 3 4 3 4 3 3
3 3 3 3 3 3 3 3 3 3 3 3 3 2 3 3 4 4 4 4 4 4 4 5 5 4 5 4 3 4 4 2 3 2 3 4 4 4 5 4 4 4 4
3 2 2 2 2 3 3 4 4 3 3 2 3 3 3 3 4 4 4 4 5 4 5 5 5 5 5 5 5 4 4 4 5 4 4 4 4 4 4 5 5 5 5
2 2 2 2 2 2 3 3 4 4 4 4 4 3 3 3 3 4 5 5 5 5 5 5 5 6 6 7 6 6 5 5 5 5 5 5 5 4 5 5 5 5 4
Wind_Direction
88 9 352 1 38 48 49 52 53 53 57 63 66 68 71 74 77 74 75 76 76 74 72 71 71 71 71 71 71 71 68 68 67 68 67 66 65 67 69 65 69 79 76
108 69 19 17 49 52 53 53 51 52 54 60 62 63 66 72 75 73 73 76 77 74 72 72 71 69 71 71 71 70 69 69 69 67 68 75 66 64 68 63 56 73 75
105 91 64 38 53 54 55 54 52 51 52 57 58 60 63 69 72 72 72 74 75 75 73 73 72 69 70 71 73 72 69 68 68 60 67 80 75 66 68 70 72 76 77
107 99 81 54 58 57 56 54 52 52 51 54 54 57 59 63 68 69 70 70 71 74 75 75 72 71 71 72 74 74 71 68 58 40 73 70 73 68 67 70 72 76 76
112 102 87 64 65 59 56 55 53 50 50 53 53 52 54 57 62 65 66 67 70 72 74 77 74 72 70 70 73 75 72 66 51 54 73 71 71 67 66 68 71 74 75
117 103 95 69 70 63 57 55 53 50 49 52 53 52 51 52 56 61 61 64 70 73 75 78 77 74 70 70 72 74 70 57 70 71 71 73 74 69 69 68 71 76 76
119 100 96 72 73 68 61 56 54 51 49 52 53 53 51 49 50 56 59 62 68 73 75 77 78 78 73 69 70 72 65 35 57 77 74 72 68 67 73 71 72 76 79
121 108 98 70 61 62 62 56 54 52 50 52 52 53 51 50 49 48 55 61 66 70 73 76 77 77 74 69 67 68 57 26 73 76 76 72 62 67 75 76 74 77 77
118 112 97 88 76 61 56 53 51 48 46 50 50 49 47 45 47 45 48 57 61 67 70 73 75 75 71 68 65 63 51 15 61 73 72 68 58 69 76 77 77 81 80
121 116 104 95 86 91 88 60 51 48 46 49 48 45 42 45 47 43 44 47 54 61 70 74 74 74 70 65 60 55 42 18 69 75 71 64 51 67 77 79 79 83 83
126 121 119 103 90 76 91 77 69 61 53 53 55 46 39 57 57 50 43 38 45 54 66 75 74 75 73 74 59 41 34 59 67 56 54 46 54 68 69 79 84 84 85
176 168 154 135 114 98 93 127 115 89 77 60 56 50 45 49 42 31 46 38 39 48 64 71 73 83 73 87 79 39 75 61 71 64 47 29 51 66 66 68 86 93 93
191 182 186 189 180 175 198 191 154 124 95 68 53 38 29 50 48 26 41 59 49 58 75 85 100 77 60 52 57 37 23 39 52 58 50 23 37 66 67 64 71 95 103
197 200 201 208 209 216 231 223 214 183 150 86 47 13 10 23 25 9 4 13 9 21 43 67 68 63 51 53 64 47 32 10 22 32 45 19 16 47 70 66 63 77 91
206 214 220 217 216 217 217 230 228 223 209 208 243 256 311 336 324 339 338 343 340 342 343 343 83 69 36 346 352 344 1 343 327 6 59 28 7 11 53 79 70 62 88
221 227 227 227 225 225 226 226 228 234 230 221 225 241 255 269 294 295 302 303 320 328 322 299 274 233 290 296 303 305 298 302 282 277 289 80 30 15 19 40 34 24 65
226 232 231 228 230 233 233 231 230 235 236 230 229 237 242 254 268 270 271 269 291 300 303 287 274 241 264 279 272 273 277 281 267 262 250 243 199 47 11 2 2 348 341
227 227 231 227 226 235 245 247 244 244 240 239 234 234 239 249 257 254 255 259 274 277 280 274 273 263 247 270 278 275 268 268 264 258 244 235 231 229 230 354 352 337 329
227 223 223 219 222 226 234 239 242 247 252 260 255 251 246 242 244 244 242 241 236 252 262 267 256 271 264 268 275 276 264 253 253 248 238 230 226 235 237 203 318 344 325
224 221 222 213 219 221 215 219 228 237 243 257 254 250 246 247 245 242 237 227 224 230 242 256 257 257 267 263 261 265 263 251 244 241 240 234 230 230 236 233 221 213 313
215 212 215 215 208 196 201 221 230 241 241 243 249 253 250 247 250 249 243 224 223 230 241 250 258 246 258 266 252 255 246 233 235 235 237 240 233 233 233 236 238 250 246
215 212 211 215 210 205 215 228 240 243 245 243 249 251 250 250 251 252 251 239 228 232 237 237 250 249 249 250 257 252 244 219 207 225 232 240 243 236 234 234 235 248 261
220 221 216 215 212 209 211 208 205 222 237 240 246 253 255 253 246 244 243 248 239 231 233 233 234 245 240 237 246 251 248 249 264 216 228 232 237 235 235 238 241 249 255
231 227 224 216 211 206 204 211 214 223 233 248 250 247 252 249 249 242 241 245 246 237 234 235 231 242 239 237 233 244 258 276 256 250 222 228 241 246 243 242 248 247 252
237 228 221 212 212 208 207 219 227 237 247 253 254 248 255 254 251 250 248 247 247 245 240 239 237 239 236 237 236 236 242 244 243 249 257 249 244 243 251 250 246 245 250
237 223 216 205 216 215 213 224 229 239 247 251 256 258 257 258 255 250 249 248 249 249 244 241 239 240 241 237 237 236 237 236 232 237 251 260 264 261 260 256 248 242 244